Location: Caixon
(43.4106°N, 0.0273°E)
Time: 15:11:52
(UTC+00:00)

Cosmos 1833 Rocket - Pass Details

Date: 16 October 2021
Orbit: 831 x 840 km, 71.0° (Epoch: 29 November)

Event Time Altitude Azimuth Distance (km) Brightness Sun altitude
Exits shadow 03:57:20 54° 321° (NW) 1,002 2.8 -25.7°
Drops below altitude 10° 04:02:22 10° 18° (NNE) 2,450 5.4 -24.8°
Sets 04:04:52 0° 22° (NNE) 3,389 6.3 -24.3°
